Regional Weather Roundup
Issued by NWS

Home | Current Version | Previous Version | Text Only | Print | Product List | Glossary Off
Versions: 1 2 3 4 5 6 7 8 9 10 11 12 13 14 15 16 17 18 19 20 21 22 23 24 25 26 27 28 29 30 31 32 33 34 35 36 37 38 39 40 41 42 43 44 45 46 47 48 49 50

000
ASUS45 KBOU 221007
RWRCO

WEATHER ROUNDUP FOR COLORADO
NATIONAL WEATHER SERVICE DENVER/BOULDER CO
400 AM MDT FRI MAY 22 2015

NOTE: "FAIR" INDICATES FEW OR NO CLOUDS BELOW 12000 FEET WITH NO
SIGNIFICANT WEATHER AND/OR OBSTRUCTIONS TO VISIBILITY.

COZ001>005-013-030-031-221100-
...NORTHWEST COLORADO...

CITY           SKY/WX    TMP DP  RH WIND       PRES   REMARKS
CRAIG          CLOUDY    45  39  79 S3        29.99R
HAYDEN         CLOUDY    45  37  76 E14       29.99S
MEEKER         CLOUDY    47  41  80 CALM      29.99R
MOUNT WERNER   NOT AVBL
STEAMBOAT SPGS CLOUDY    42  38  84 CALM      30.00S
WALDEN         CLOUDY    37  34  87 S9        30.00F
$$

COZ006>008-011-221100-
...WEST CENTRAL VALLEYS...

CITY           SKY/WX    TMP DP  RH WIND       PRES   REMARKS
GRAND JUNCTION LGT RAIN  49  45  86 E13       29.97S
MONTROSE       CLOUDY    48  43  82 CALM      30.04R
EAGLE          CLOUDY    45  43  93 SW6       30.07R
RIFLE          LGT RAIN  48  42  80 E17       30.00R
DELTA          CLOUDY    51  48  92 CALM      30.03R
NUCLA          NOT AVBL
$$

COZ017>023-064>068-221100-
...SOUTHWEST COLORADO...

CITY           SKY/WX    TMP DP  RH WIND       PRES   REMARKS
DURANGO        CLOUDY    43  41  93 NE9       30.09R
CORTEZ         CLEAR     46  40  79 CALM      30.01S
PAGOSA SPRINGS MOCLDY    37  37  99 CALM      30.13S
TELLURIDE      CLOUDY    37  34  86 SE3       30.14R
WOLF CREEK PAS NOT AVBL
$$

COZ009-010-012-014-032>034-037-058>063-221100-
...CENTRAL COLORADO...

CITY           SKY/WX    TMP DP  RH WIND       PRES   REMARKS
ASPEN          LGT RAIN  42  39  89 N9        30.05R
BUENA VISTA    CLOUDY    38  36  90 CALM      30.07F
COPPER MTN     SNOW      34  30  86 S6        30.17S VSB 1/4 WCI  29
BERTHOUD PASS  HAZE      27  19  74 SE6       30.19F VSB<1/4 WCI  20
COTTONWOOD PAS SNOW      36  34  93 SE5       30.10F VSB 1/2
GUNNISON       CLOUDY    45  34  65 CALM      30.07F
KREMMLING      LGT RAIN  41  36  81 CALM      30.06R
LEADVILLE      FOG       32  32 100 CALM      30.09S VSB 1/2
SALIDA         CLOUDY    41  40  93 CALM      30.13F
SUNLIGHT       LGT SNOW  34  34 100 CALM      30.16S VSB 3/4
WILKERSON PASS LGT SNOW  32  30  93 MISG      30.17S VSB 1
$$

COZ069>075-221100-
...SAN LUIS VALLEY/SANGRE DE CRISTO MOUNTAINS...

CITY           SKY/WX    TMP DP  RH WIND       PRES   REMARKS
ALAMOSA        CLOUDY    42  36  79 S10       30.08R
LA VETA PASS   LGT SNOW N/A N/A N/A MISG      30.08F VSB 1
SAGUACHE       DRIZZLE   41  36  81 N12G20    30.06F
$$

COZ035-036-038>040-221100-
...NORTHERN COLORADO FRONT RANGE...

CITY           SKY/WX    TMP DP  RH WIND       PRES   REMARKS
DENVER INTL AP CLOUDY    47  44  90 SE12      30.01F
DMNS CITY PARK   N/A     47  43  85 SE3G12    30.00S
AURORA         CLOUDY    45  45  99 E8        30.01F
FRONT RANGE AP CLOUDY    46  46 100 SE7       30.03S
ERIE MUNI ARPT CLOUDY    49  45  87 CALM      30.00F
BOULDER MUN AP CLOUDY    46  46 100 NW3       30.00F
CENTENNIAL     CLOUDY    45  43  93 SE9       30.00F
BROOMFIELD     DRIZZLE   46  45  93 E5        30.01F
FORT COLLINS   CLOUDY    48  45  87 SE9       30.03S
LONGMONT       CLOUDY    51  47  86 E5        30.03S
$$

COZ041-046-047-076>085-087-088-221100-
...PIKES PEAK/PALMER DIVIDE AND SOUTHERN FOOTHILLS...

CITY           SKY/WX    TMP DP  RH WIND       PRES   REMARKS
COLO. SPRINGS  RAIN      45  44  97 SE3       30.03F FOG
A. F. ACADEMY  LGT RAIN  42  42 100 CALM      30.03S
ELLICOTT       NOT AVBL
FALCON         LGT RAIN  42  42 100 S12       30.05S
FORT CARSON    RAIN      45 N/A N/A NE2       30.02S
LIMON          LGT RAIN  43  43 100 SE17      30.05S FOG
MONUMENT HILL  NOT AVBL
TRINIDAD       CLOUDY    45  42  89 N5        30.00F
$$

COZ042>045-048>051-090-091-221100-
...NORTHEAST COLORADO...

CITY           SKY/WX    TMP DP  RH WIND       PRES   REMARKS
GREELEY ARPT   CLOUDY    48  45  87 SE12      30.03F
AKRON          CLOUDY    45  44  97 SE13      30.06S
BURLINGTON     LGT RAIN  47  44  90 SE16      30.07F
WRAY           CLOUDY    50  46  85 SE10      30.10F
STERLING       CLOUDY    50  45  81 SE5       30.06F
HOLYOKE        NOT AVBL
FORT MORGAN    DRIZZLE   47  44  90 SE10      30.05F
$$

COZ086-089-092>099-221100-
...SOUTHEAST COLORADO...

CITY           SKY/WX    TMP DP  RH WIND       PRES   REMARKS
PUEBLO         LGT RAIN  48  47  96 E12       30.00F
LA JUNTA       LGT RAIN  49  46  90 SE13      30.02F
LAMAR          LGT RAIN  49  48  97 SE15      30.05S
SPRINGFIELD      N/A     47  46  97 S16G25    30.09R
$$


USA.gov is the U.S. government's official web portal to all federal, state and local government web resources and services.